Regional Weather Roundup
Issued by NWS Jackson, KY

Home | Current Version | Previous Version | Graphics & Text | Print | Product List | Glossary On
Versions: 1 2 3 4 5 6 7 8 9 10 11 12 13 14 15 16 17 18 19 20 21 22 23 24 25 26 27 28 29 30 31 32 33 34 35 36 37 38 39 40 41 42 43 44 45 46 47 48 49 50
000
ASUS43 KJKL 101319
RWRJKL

EAST KENTUCKY HOURLY WEATHER ROUNDUP
NATIONAL WEATHER SERVICE JACKSON KY
900 AM EDT THU JUL 10 2014

NOTE: "FAIR" INDICATES FEW OR NO CLOUDS BELOW 12,000 FEET WITH
NO SIGNIFICANT WEATHER AND/OR OBSTRUCTIONS TO VISIBILITY.

* THESE REPORTS ARE NOT UNDER NWS QUALITY CONTROL AND MAY NOT
  REPORT WEATHER SUCH AS PRECIPITATION AND FOG.

KYZ079-080-083-085-087-088-110-112-115-119-120-101400
...EASTERN KENTUCKY...

CITY           SKY/WX    TMP DP  RH WIND       PRES   REMARKS
JACKSON        SUNNY     70  64  81 CALM      30.11R
LONDON         MOSUNNY   68  65  90 CALM      30.11R
SOMERSET*      SUNNY     68  64  88 CALM      30.11R
MONTICELLO*    MOSUNNY   70  67  90 CALM      30.12R
MIDDLESBORO*   CLOUDY    68  67  96 CALM      30.12R
HARLAN APT*    CLOUDY    64  63  94 MISG      30.13S
HAZARD APT*    SUNNY     70  68  94 CALM      30.11R
BLACK MTN*       N/A     64  59  82 N1          N/A
PIKEVILLE APT* FOG       64  64 100 CALM      30.11S VSB 0
BIG SANDY*     SUNNY     68  67  97 CALM      30.11R
MOREHEAD APT*    N/A     70  63  78 CALM      30.12S
ASHLAND*       SUNNY     70  63  78 CALM      30.07R
$$

KYZ035-036-041-042-044-050-067-078-099-101400
...CENTRAL KENTUCKY...

CITY           SKY/WX    TMP DP  RH WIND       PRES   REMARKS
MT STERLING*   MOSUNNY   70  61  73 CALM      30.12R
FLEMING/MASON* PTSUNNY   70  63  78 CALM      30.12R
DANVILLE*      SUNNY     70  63  78 CALM      30.11R
RICHMOND*      SUNNY     72  61  68 CALM      30.10R
LEXINGTON      SUNNY     74  63  68 CALM      30.11R
FRANKFORT      MOSUNNY   72  62  71 CALM      30.09R
$$

KYZ091>093-OHZ055-061-077-WVZ005-015-034-035-042-101400
...SOUTHERN OHIO/WEST VIRGINIA...

CITY           SKY/WX    TMP DP  RH WIND       PRES   REMARKS
COVINGTON      MOSUNNY   71  59  65 NE6       30.10R
COLUMBUS       MOSUNNY   71  62  73 CALM      30.09S
DAYTON         MOSUNNY   68  59  73 N7        30.13R
WILMINGTON     MOSUNNY   68  60  75 NE7       30.10R
HUNTINGTON     PTSUNNY   71  64  78 CALM      30.08R
CHARLESTON     MOSUNNY   71  68  90 CALM      30.09R
PINEVILLE*     CLOUDY    67  67 100 MISG      30.18S FOG
BECKLEY        SUNNY     70  63  78 S3        30.16R
BLUEFIELD      MOSUNNY   71  63  75 SW6       30.18R
$$

VAZ002-007-008-TNZ017-027-036-066-071-101400
...SOUTHWEST VIRGINIA/EAST TENNESSEE...

CITY           SKY/WX    TMP DP  RH WIND       PRES   REMARKS
WISE*          PTSUNNY   66  66 100 CALM      30.18S
JONESVILLE*    PTSUNNY   70  68  94 CALM      30.14S
ABINGDON*      PTSUNNY   72  68  88 SE5       30.15S
BRISTOL        MOSUNNY   74  65  73 CALM      30.13R
KNOXVILLE      CLOUDY    72  68  87 CALM      30.09R
OAK RIDGE      CLOUDY    71  68  90 CALM      30.11S
CROSSVILLE     MOSUNNY   70  66  87 CALM      30.14S
NASHVILLE      PTSUNNY   74  68  81 CALM      30.09R
$$

...KEY TO REMARKS...
VSB - VISIBILITY IN MILES
WCI - WIND CHILL INDEX
HX  - HEAT INDEX

$$


USA.gov is the U.S. government's official web portal to all federal, state and local government web resources and services.